date,time,press
2018-04-01,00:00,922.5
2018-04-01,01:00,926.8
2018-04-01,02:00,937.1
2018-04-01,03:00,939.1
2018-04-01,04:00,932.9
2018-04-01,05:00,941.1
2018-04-01,06:00,941.6
2018-04-01,07:00,938.2
2018-04-01,08:00,925.2
2018-04-01,09:00,904.4
2018-04-01,10:00,854.3
2018-04-01,11:00,-999
2018-04-01,12:00,-999
2018-04-01,13:00,-999
2018-04-01,14:00,-999
2018-04-01,15:00,-999
2018-04-01,16:00,-999
2018-04-01,17:00,-999
2018-04-01,18:00,-999
2018-04-01,19:00,-999
2018-04-01,20:00,864.3
2018-04-01,21:00,881.2
2018-04-01,22:00,890.5
2018-04-01,23:00,894.1
2018-04-02,00:00,903.6
2018-04-02,01:00,915.7
2018-04-02,02:00,920.6
2018-04-02,03:00,924.8
2018-04-02,04:00,933.4
2018-04-02,05:00,940.3
2018-04-02,06:00,940.8
2018-04-02,07:00,931.2
2018-04-02,08:00,873
2018-04-02,09:00,-999
2018-04-02,10:00,-999
2018-04-02,11:00,-999
2018-04-02,12:00,-999
2018-04-02,13:00,-999
2018-04-02,14:00,-999
2018-04-02,15:00,-999
2018-04-02,16:00,-999
2018-04-02,17:00,-999
2018-04-02,18:00,-999
2018-04-02,19:00,-999
2018-04-02,20:00,989.8
2018-04-02,21:00,1016.3
2018-04-02,22:00,995.9
2018-04-02,23:00,1001.6
2018-04-03,00:00,997.5
2018-04-03,01:00,995.1
2018-04-03,02:00,1000.5
2018-04-03,03:00,1002.4
2018-04-03,04:00,1009
2018-04-03,05:00,998.5
2018-04-03,06:00,983.1
2018-04-03,07:00,974
2018-04-03,08:00,910.7
2018-04-03,09:00,-999
2018-04-03,10:00,-999
2018-04-03,11:00,-999
2018-04-03,12:00,-999
2018-04-03,13:00,-999
2018-04-03,14:00,-999
2018-04-03,15:00,-999
2018-04-03,16:00,-999
2018-04-03,17:00,-999
2018-04-03,18:00,-999
2018-04-03,19:00,-999
2018-04-03,20:00,-999
2018-04-03,21:00,-999
2018-04-03,22:00,865.3
2018-04-03,23:00,879.4
2018-04-04,00:00,883.3
2018-04-04,01:00,-999
2018-04-04,02:00,892.7
2018-04-04,03:00,894.3
2018-04-04,04:00,903.4
2018-04-04,05:00,908.1
2018-04-04,06:00,907
2018-04-04,07:00,881.8
2018-04-04,08:00,-999
2018-04-04,09:00,-999
2018-04-04,10:00,-999
2018-04-04,11:00,-999
2018-04-04,12:00,-999
2018-04-04,13:00,-999
2018-04-04,14:00,-999
2018-04-04,15:00,-999
2018-04-04,16:00,-999
2018-04-04,17:00,-999
2018-04-04,18:00,-999
2018-04-04,19:00,-999
2018-04-04,20:00,-999
2018-04-04,21:00,869.1
2018-04-04,22:00,876.1
2018-04-04,23:00,872.1
2018-04-05,00:00,882.5
2018-04-05,01:00,890
2018-04-05,02:00,901
2018-04-05,03:00,903.3
2018-04-05,04:00,906.2
2018-04-05,05:00,915.1
2018-04-05,06:00,917
2018-04-05,07:00,914.7
2018-04-05,08:00,-999
2018-04-05,09:00,-999
2018-04-05,10:00,-999
2018-04-05,11:00,-999
2018-04-05,12:00,-999
2018-04-05,13:00,-999
2018-04-05,14:00,-999
2018-04-05,15:00,-999
2018-04-05,16:00,862.7
2018-04-05,17:00,-999
2018-04-05,18:00,-999
2018-04-05,19:00,851.4
2018-04-05,20:00,862.3
2018-04-05,21:00,863.1
2018-04-05,22:00,-999
2018-04-05,23:00,864.2
2018-04-06,00:00,895.3
2018-04-06,01:00,900.3
2018-04-06,02:00,910.1
2018-04-06,03:00,909.6
2018-04-06,04:00,908.6
2018-04-06,05:00,917.7
2018-04-06,06:00,927.9
2018-04-06,07:00,909.5
2018-04-06,08:00,-999
2018-04-06,09:00,-999
2018-04-06,10:00,-999
2018-04-06,11:00,-999
2018-04-06,12:00,-999
2018-04-06,13:00,-999
2018-04-06,14:00,-999
2018-04-06,15:00,-999
2018-04-06,16:00,-999
2018-04-06,17:00,-999
2018-04-06,18:00,-999
2018-04-06,19:00,-999
2018-04-06,20:00,-999
2018-04-06,21:00,-999
2018-04-06,22:00,-999
2018-04-06,23:00,-999
2018-04-07,00:00,850.5
2018-04-07,01:00,866.7
2018-04-07,02:00,876.9
2018-04-07,03:00,866.8
2018-04-07,04:00,861.9
2018-04-07,05:00,956.7
2018-04-07,06:00,961.8
2018-04-07,07:00,967.3
2018-04-07,08:00,952.7
2018-04-07,09:00,959.6
2018-04-07,10:00,944
2018-04-07,11:00,889.6
2018-04-07,12:00,-999
2018-04-07,13:00,-999
2018-04-07,14:00,-999
2018-04-07,15:00,-999
2018-04-07,16:00,-999
2018-04-07,17:00,861
2018-04-07,18:00,902.7
2018-04-07,19:00,956.9
2018-04-07,20:00,983.6
2018-04-07,21:00,991.5
2018-04-07,22:00,998.1
2018-04-07,23:00,1005.2
2018-04-08,00:00,1005.8
2018-04-08,01:00,1010.1
2018-04-08,02:00,1019.9
2018-04-08,03:00,1030.8
2018-04-08,04:00,1036.3
2018-04-08,05:00,1046.2
2018-04-08,06:00,1051.9
2018-04-08,07:00,1047.1
2018-04-08,08:00,1017.2
2018-04-08,09:00,950.2
2018-04-08,10:00,-999
2018-04-08,11:00,-999
2018-04-08,12:00,-999
2018-04-08,13:00,-999
2018-04-08,14:00,-999
2018-04-08,15:00,-999
2018-04-08,16:00,-999
2018-04-08,17:00,-999
2018-04-08,18:00,-999
2018-04-08,19:00,-999
2018-04-08,20:00,855.7
2018-04-08,21:00,898.2
2018-04-08,22:00,908.2
2018-04-08,23:00,913
2018-04-09,00:00,924.9
2018-04-09,01:00,936.8
2018-04-09,02:00,932.6
2018-04-09,03:00,943
2018-04-09,04:00,956.4
2018-04-09,05:00,985.3
2018-04-09,06:00,995
2018-04-09,07:00,980.6
2018-04-09,08:00,882.2
2018-04-09,09:00,-999
2018-04-09,10:00,-999
2018-04-09,11:00,-999
2018-04-09,12:00,-999
2018-04-09,13:00,-999
2018-04-09,14:00,-999
2018-04-09,15:00,-999
2018-04-09,16:00,-999
2018-04-09,17:00,-999
2018-04-09,18:00,-999
2018-04-09,19:00,-999
2018-04-09,20:00,-999
2018-04-09,21:00,-999
2018-04-09,22:00,-999
2018-04-09,23:00,864.2
2018-04-10,00:00,885
2018-04-10,01:00,899.8
2018-04-10,02:00,922.8
2018-04-10,03:00,924.8
2018-04-10,04:00,940.4
2018-04-10,05:00,953
2018-04-10,06:00,964
2018-04-10,07:00,955.7
2018-04-10,08:00,867
2018-04-10,09:00,-999
2018-04-10,10:00,-999
2018-04-10,11:00,-999
2018-04-10,12:00,-999
2018-04-10,13:00,-999
2018-04-10,14:00,-999
2018-04-10,15:00,-999
2018-04-10,16:00,-999
2018-04-10,17:00,-999
2018-04-10,18:00,-999
2018-04-10,19:00,-999
2018-04-10,20:00,-999
2018-04-10,21:00,-999
2018-04-10,22:00,850.7
2018-04-10,23:00,868
2018-04-11,00:00,884.8
2018-04-11,01:00,890.4
2018-04-11,02:00,901.6
2018-04-11,03:00,908.9
2018-04-11,04:00,915.7
2018-04-11,05:00,934.1
2018-04-11,06:00,942
2018-04-11,07:00,917.4
2018-04-11,08:00,-999
2018-04-11,09:00,-999
2018-04-11,10:00,-999
2018-04-11,11:00,-999
2018-04-11,12:00,-999
2018-04-11,13:00,-999
2018-04-11,14:00,-999
2018-04-11,15:00,-999
2018-04-11,16:00,-999
2018-04-11,17:00,-999
2018-04-11,18:00,-999
2018-04-11,19:00,-999
2018-04-11,20:00,-999
2018-04-11,21:00,-999
2018-04-11,22:00,-999
2018-04-11,23:00,-999
2018-04-12,00:00,853.6
2018-04-12,01:00,-999
2018-04-12,02:00,853.5
2018-04-12,03:00,862
2018-04-12,04:00,875.5
2018-04-12,05:00,881.2
2018-04-12,06:00,885
2018-04-12,07:00,869.4
2018-04-12,08:00,-999
2018-04-12,09:00,-999
2018-04-12,10:00,-999
2018-04-12,11:00,-999
2018-04-12,12:00,-999
2018-04-12,13:00,-999
2018-04-12,14:00,-999
2018-04-12,15:00,-999
2018-04-12,16:00,-999
2018-04-12,17:00,-999
2018-04-12,18:00,-999
2018-04-12,19:00,-999
2018-04-12,20:00,-999
2018-04-12,21:00,-999
2018-04-12,22:00,-999
2018-04-12,23:00,-999
2018-04-13,00:00,-999
2018-04-13,01:00,868.5
2018-04-13,02:00,878
2018-04-13,03:00,875
2018-04-13,04:00,884
2018-04-13,05:00,886.9
2018-04-13,06:00,889.1
2018-04-13,07:00,864.8
2018-04-13,08:00,-999
2018-04-13,09:00,-999
2018-04-13,10:00,-999
2018-04-13,11:00,-999
2018-04-13,12:00,-999
2018-04-13,13:00,-999
2018-04-13,14:00,-999
2018-04-13,15:00,-999
2018-04-13,16:00,-999
2018-04-13,17:00,-999
2018-04-13,18:00,-999
2018-04-13,19:00,-999
2018-04-13,20:00,-999
2018-04-13,21:00,-999
2018-04-13,22:00,-999
2018-04-13,23:00,-999
2018-04-14,00:00,-999
2018-04-14,01:00,-999
2018-04-14,02:00,863.5
2018-04-14,03:00,855
2018-04-14,04:00,860.5
2018-04-14,05:00,869.5
2018-04-14,06:00,878.6
2018-04-14,07:00,856.2
2018-04-14,08:00,-999
2018-04-14,09:00,-999
2018-04-14,10:00,-999
2018-04-14,11:00,-999
2018-04-14,12:00,-999
2018-04-14,13:00,-999
2018-04-14,14:00,-999
2018-04-14,15:00,-999
2018-04-14,16:00,-999
2018-04-14,17:00,-999
2018-04-14,18:00,-999
2018-04-14,19:00,-999
2018-04-14,20:00,-999
2018-04-14,21:00,-999
2018-04-14,22:00,-999
2018-04-14,23:00,-999
2018-04-15,00:00,-999
2018-04-15,01:00,-999
2018-04-15,02:00,856.5
2018-04-15,03:00,868
2018-04-15,04:00,868.8
2018-04-15,05:00,869.4
2018-04-15,06:00,870.1
2018-04-15,07:00,-999
2018-04-15,08:00,-999
2018-04-15,09:00,-999
2018-04-15,10:00,-999
2018-04-15,11:00,-999
2018-04-15,12:00,-999
2018-04-15,13:00,-999
2018-04-15,14:00,-999
2018-04-15,15:00,-999
2018-04-15,16:00,-999
2018-04-15,17:00,-999
2018-04-15,18:00,-999
2018-04-15,19:00,-999
2018-04-15,20:00,-999
2018-04-15,21:00,-999
2018-04-15,22:00,-999
2018-04-15,23:00,-999
2018-04-16,00:00,-999
2018-04-16,01:00,-999
2018-04-16,02:00,-999
2018-04-16,03:00,-999
2018-04-16,04:00,855.2
2018-04-16,05:00,869.3
2018-04-16,06:00,869.2
2018-04-16,07:00,-999
2018-04-16,08:00,-999
2018-04-16,09:00,-999
2018-04-16,10:00,-999
2018-04-16,11:00,-999
2018-04-16,12:00,-999
2018-04-16,13:00,-999
2018-04-16,14:00,-999
2018-04-16,15:00,-999
2018-04-16,16:00,-999
2018-04-16,17:00,-999
2018-04-16,18:00,-999
2018-04-16,19:00,-999
2018-04-16,20:00,-999
2018-04-16,21:00,-999
2018-04-16,22:00,-999
2018-04-16,23:00,-999
2018-04-17,00:00,-999
2018-04-17,01:00,-999
2018-04-17,02:00,-999
2018-04-17,03:00,859.7
2018-04-17,04:00,857.9
2018-04-17,05:00,867.5
2018-04-17,06:00,868.5
2018-04-17,07:00,855.8
2018-04-17,08:00,-999
2018-04-17,09:00,-999
2018-04-17,10:00,-999
2018-04-17,11:00,-999
2018-04-17,12:00,-999
2018-04-17,13:00,-999
2018-04-17,14:00,-999
2018-04-17,15:00,911.8
2018-04-17,16:00,966.3
2018-04-17,17:00,965
2018-04-17,18:00,965.1
2018-04-17,19:00,958.8
2018-04-17,20:00,954.2
2018-04-17,21:00,958.4
2018-04-17,22:00,964.5
2018-04-17,23:00,969.6
2018-04-18,00:00,975.2
2018-04-18,01:00,964.6
2018-04-18,02:00,972.8
2018-04-18,03:00,962.7
2018-04-18,04:00,954.5
2018-04-18,05:00,977.2
2018-04-18,06:00,981.9
2018-04-18,07:00,962.7
2018-04-18,08:00,935.1
2018-04-18,09:00,863.6
2018-04-18,10:00,-999
2018-04-18,11:00,-999
2018-04-18,12:00,-999
2018-04-18,13:00,-999
2018-04-18,14:00,-999
2018-04-18,15:00,-999
2018-04-18,16:00,-999
2018-04-18,17:00,-999
2018-04-18,18:00,-999
2018-04-18,19:00,-999
2018-04-18,20:00,-999
2018-04-18,21:00,-999
2018-04-18,22:00,855.5
2018-04-18,23:00,874.1
2018-04-19,00:00,886.9
2018-04-19,01:00,892.3
2018-04-19,02:00,908.6
2018-04-19,03:00,916.6
2018-04-19,04:00,922.4
2018-04-19,05:00,929.1
2018-04-19,06:00,936.2
2018-04-19,07:00,908.3
2018-04-19,08:00,-999
2018-04-19,09:00,-999
2018-04-19,10:00,-999
2018-04-19,11:00,-999
2018-04-19,12:00,-999
2018-04-19,13:00,-999
2018-04-19,14:00,962.4
2018-04-19,15:00,853.2
2018-04-19,16:00,-999
2018-04-19,17:00,-999
2018-04-19,18:00,-999
2018-04-19,19:00,-999
2018-04-19,20:00,-999
2018-04-19,21:00,-999
2018-04-19,22:00,865.4
2018-04-19,23:00,876.5
2018-04-20,00:00,877.3
2018-04-20,01:00,895.4
2018-04-20,02:00,898.5
2018-04-20,03:00,898.8
2018-04-20,04:00,903.3
2018-04-20,05:00,911.7
2018-04-20,06:00,913.4
2018-04-20,07:00,888.1
2018-04-20,08:00,-999
2018-04-20,09:00,-999
2018-04-20,10:00,-999
2018-04-20,11:00,-999
2018-04-20,12:00,-999
2018-04-20,13:00,-999
2018-04-20,14:00,-999
2018-04-20,15:00,939.1
2018-04-20,16:00,885.5
2018-04-20,17:00,-999
2018-04-20,18:00,-999
2018-04-20,19:00,857.1
2018-04-20,20:00,876.8
2018-04-20,21:00,872.7
2018-04-20,22:00,881
2018-04-20,23:00,895
2018-04-21,00:00,901.4
2018-04-21,01:00,908.8
2018-04-21,02:00,903.1
2018-04-21,03:00,902.2
2018-04-21,04:00,899.1
2018-04-21,05:00,902.1
2018-04-21,06:00,908
2018-04-21,07:00,868.4
2018-04-21,08:00,-999
2018-04-21,09:00,-999
2018-04-21,10:00,-999
2018-04-21,11:00,-999
2018-04-21,12:00,-999
2018-04-21,13:00,-999
2018-04-21,14:00,-999
2018-04-21,15:00,884.6
2018-04-21,16:00,-999
2018-04-21,17:00,-999
2018-04-21,18:00,-999
2018-04-21,19:00,-999
2018-04-21,20:00,-999
2018-04-21,21:00,-999
2018-04-21,22:00,-999
2018-04-21,23:00,854.2
2018-04-22,00:00,862.9
2018-04-22,01:00,879.4
2018-04-22,02:00,888.3
2018-04-22,03:00,893.6
2018-04-22,04:00,894.3
2018-04-22,05:00,897
2018-04-22,06:00,898.6
2018-04-22,07:00,869
2018-04-22,08:00,-999
2018-04-22,09:00,-999
2018-04-22,10:00,-999
2018-04-22,11:00,-999
2018-04-22,12:00,-999
2018-04-22,13:00,-999
2018-04-22,14:00,-999
2018-04-22,15:00,906.8
2018-04-22,16:00,902.5
2018-04-22,17:00,862.4
2018-04-22,18:00,-999
2018-04-22,19:00,857.8
2018-04-22,20:00,863.5
2018-04-22,21:00,868.3
2018-04-22,22:00,875.6
2018-04-22,23:00,883.2
2018-04-23,00:00,890.3
2018-04-23,01:00,891.4
2018-04-23,02:00,891.9
2018-04-23,03:00,886.4
2018-04-23,04:00,897.4
2018-04-23,05:00,905.3
2018-04-23,06:00,908.1
2018-04-23,07:00,887.2
2018-04-23,08:00,-999
2018-04-23,09:00,-999
2018-04-23,10:00,-999
2018-04-23,11:00,-999
2018-04-23,12:00,-999
2018-04-23,13:00,-999
2018-04-23,14:00,897.8
2018-04-23,15:00,872.9
2018-04-23,16:00,-999
2018-04-23,17:00,-999
2018-04-23,18:00,-999
2018-04-23,19:00,-999
2018-04-23,20:00,-999
2018-04-23,21:00,-999
2018-04-23,22:00,-999
2018-04-23,23:00,-999
2018-04-24,00:00,850
2018-04-24,01:00,864
2018-04-24,02:00,876
2018-04-24,03:00,877.2
2018-04-24,04:00,880
2018-04-24,05:00,873.1
2018-04-24,06:00,883.4
2018-04-24,07:00,863.6
2018-04-24,08:00,-999
2018-04-24,09:00,-999
2018-04-24,10:00,-999
2018-04-24,11:00,-999
2018-04-24,12:00,-999
2018-04-24,13:00,-999
2018-04-24,14:00,-999
2018-04-24,15:00,-999
2018-04-24,16:00,-999
2018-04-24,17:00,-999
2018-04-24,18:00,-999
2018-04-24,19:00,-999
2018-04-24,20:00,-999
2018-04-24,21:00,-999
2018-04-24,22:00,-999
2018-04-24,23:00,-999
2018-04-25,00:00,-999
2018-04-25,01:00,854.6
2018-04-25,02:00,855.5
2018-04-25,03:00,856.1
2018-04-25,04:00,857.1
2018-04-25,05:00,868.5
2018-04-25,06:00,874.5
2018-04-25,07:00,-999
2018-04-25,08:00,-999
2018-04-25,09:00,-999
2018-04-25,10:00,-999
2018-04-25,11:00,-999
2018-04-25,12:00,935.5
2018-04-25,13:00,942
2018-04-25,14:00,896.7
2018-04-25,15:00,-999
2018-04-25,16:00,-999
2018-04-25,17:00,-999
2018-04-25,18:00,-999
2018-04-25,19:00,-999
2018-04-25,20:00,-999
2018-04-25,21:00,-999
2018-04-25,22:00,-999
2018-04-25,23:00,-999
2018-04-26,00:00,-999
2018-04-26,01:00,851.4
2018-04-26,02:00,855.7
2018-04-26,03:00,868.7
2018-04-26,04:00,872.3
2018-04-26,05:00,878.7
2018-04-26,06:00,875.5
2018-04-26,07:00,865.2
2018-04-26,08:00,-999
2018-04-26,09:00,-999
2018-04-26,10:00,-999
2018-04-26,11:00,-999
2018-04-26,12:00,-999
2018-04-26,13:00,-999
2018-04-26,14:00,-999
2018-04-26,15:00,-999
2018-04-26,16:00,-999
2018-04-26,17:00,-999
2018-04-26,18:00,-999
2018-04-26,19:00,-999
2018-04-26,20:00,876.7
2018-04-26,21:00,886
2018-04-26,22:00,903.9
2018-04-26,23:00,911.6
2018-04-27,00:00,917.9
2018-04-27,01:00,914.9
2018-04-27,02:00,894.2
2018-04-27,03:00,904.8
2018-04-27,04:00,925.4
2018-04-27,05:00,930.6
2018-04-27,06:00,926.5
2018-04-27,07:00,897.8
2018-04-27,08:00,-999
2018-04-27,09:00,-999
2018-04-27,10:00,-999
2018-04-27,11:00,-999
2018-04-27,12:00,-999
2018-04-27,13:00,-999
2018-04-27,14:00,-999
2018-04-27,15:00,-999
2018-04-27,16:00,853
2018-04-27,17:00,941.7
2018-04-27,18:00,943.3
2018-04-27,19:00,933.2
2018-04-27,20:00,922.5
2018-04-27,21:00,925.7
2018-04-27,22:00,913.7
2018-04-27,23:00,927.5
2018-04-28,00:00,924.1
2018-04-28,01:00,920.1
2018-04-28,02:00,911.9
2018-04-28,03:00,912.3
2018-04-28,04:00,910.3
2018-04-28,05:00,907
2018-04-28,06:00,915.5
2018-04-28,07:00,933.9
2018-04-28,08:00,940.9
2018-04-28,09:00,941.4
2018-04-28,10:00,942
2018-04-28,11:00,929.4
2018-04-28,12:00,950.5
2018-04-28,13:00,940.2
2018-04-28,14:00,940.9
2018-04-28,15:00,950.3
2018-04-28,16:00,944.2
2018-04-28,17:00,945.3
2018-04-28,18:00,952.2
2018-04-28,19:00,963.3
2018-04-28,20:00,966.2
2018-04-28,21:00,957.6
2018-04-28,22:00,957.1
2018-04-28,23:00,969.1
2018-04-29,00:00,975
2018-04-29,01:00,975.5
2018-04-29,02:00,965.1
2018-04-29,03:00,968.1
2018-04-29,04:00,961.2
2018-04-29,05:00,963.2
2018-04-29,06:00,967.9
2018-04-29,07:00,942.7
2018-04-29,08:00,895.1
2018-04-29,09:00,-999
2018-04-29,10:00,-999
2018-04-29,11:00,-999
2018-04-29,12:00,-999
2018-04-29,13:00,-999
2018-04-29,14:00,-999
2018-04-29,15:00,925.4
2018-04-29,16:00,898.5
2018-04-29,17:00,-999
2018-04-29,18:00,-999
2018-04-29,19:00,872.5
2018-04-29,20:00,883.7
2018-04-29,21:00,890.8
2018-04-29,22:00,897.3
2018-04-29,23:00,902.3
2018-04-30,00:00,905.7
2018-04-30,01:00,910.9
2018-04-30,02:00,919.2
2018-04-30,03:00,921.2
2018-04-30,04:00,926.4
2018-04-30,05:00,931.4
2018-04-30,06:00,922.2
2018-04-30,07:00,940.1
2018-04-30,08:00,921.4
2018-04-30,09:00,899.7
2018-04-30,10:00,868.3
2018-04-30,11:00,-999
2018-04-30,12:00,-999
2018-04-30,13:00,-999
2018-04-30,14:00,-999
2018-04-30,15:00,-999
2018-04-30,16:00,-999
2018-04-30,17:00,-999
2018-04-30,18:00,-999
2018-04-30,19:00,-999
2018-04-30,20:00,863.2
2018-04-30,21:00,887.4
2018-04-30,22:00,899.6
2018-04-30,23:00,943.2
